TimeEST,TemperatureF,Dew PointF,Humidity,Sea Level PressureIn,VisibilityMPH,Wind Direction,Wind SpeedMPH,Gust SpeedMPH,PrecipitationIn,Events,Conditions,WindDirDegrees,DateUTC
12:15 AM,32.5,21.4,64,29.95,10.0,Calm,Calm,-,N/A,,Clear,0,2013-02-01 05:15:00
12:35 AM,31.8,22.3,68,29.95,10.0,WSW,3.5,-,N/A,,Clear,250,2013-02-01 05:35:00
12:55 AM,32.2,21.6,65,29.95,10.0,Calm,Calm,-,N/A,,Scattered Clouds,0,2013-02-01 05:55:00
1:15 AM,33.1,21.9,64,29.93,10.0,SSW,3.5,-,N/A,,Scattered Clouds,210,2013-02-01 06:15:00
1:35 AM,32.0,22.6,68,29.91,10.0,Calm,Calm,-,N/A,,Clear,0,2013-02-01 06:35:00
1:55 AM,32.5,22.1,65,29.90,10.0,Calm,Calm,-,N/A,,Clear,0,2013-02-01 06:55:00
2:15 AM,35.1,22.6,61,29.89,10.0,SW,6.9,-,N/A,,Clear,220,2013-02-01 07:15:00
2:35 AM,36.5,23.2,59,29.88,10.0,SW,6.9,-,N/A,,Clear,220,2013-02-01 07:35:00
2:55 AM,37.2,23.9,59,29.86,10.0,SW,8.1,-,N/A,,Clear,220,2013-02-01 07:55:00
3:15 AM,37.6,24.4,59,29.85,10.0,SSW,10.4,18.4,N/A,,Mostly Cloudy,210,2013-02-01 08:15:00
3:35 AM,37.9,24.6,59,29.84,10.0,SW,9.2,16.1,N/A,,Mostly Cloudy,220,2013-02-01 08:35:00
3:55 AM,38.3,24.8,58,29.84,10.0,SW,10.4,16.1,N/A,,Scattered Clouds,230,2013-02-01 08:55:00
4:15 AM,38.3,25.3,60,29.85,10.0,West,10.4,-,N/A,,Clear,260,2013-02-01 09:15:00
4:35 AM,36.9,24.8,62,29.85,10.0,West,5.8,-,N/A,,Scattered Clouds,270,2013-02-01 09:35:00
4:55 AM,36.1,24.8,63,29.86,10.0,WSW,5.8,-,N/A,,Scattered Clouds,240,2013-02-01 09:55:00
5:15 AM,36.5,25.2,64,29.87,10.0,WSW,6.9,-,N/A,,Mostly Cloudy,240,2013-02-01 10:15:00
5:35 AM,37.2,25.7,63,29.90,10.0,West,6.9,-,N/A,,Overcast,270,2013-02-01 10:35:00
5:55 AM,37.6,27.5,67,29.94,10.0,NW,5.8,-,N/A,Snow,Light Snow,310,2013-02-01 10:55:00
6:15 AM,34.7,28.9,79,29.96,10.0,NW,9.2,-,N/A,,Overcast,310,2013-02-01 11:15:00
6:35 AM,34.7,20.8,57,29.99,10.0,WNW,13.8,24.2,N/A,,Mostly Cloudy,300,2013-02-01 11:35:00
6:55 AM,33.3,15.3,48,30.02,10.0,WNW,15.0,24.2,N/A,,Clear,300,2013-02-01 11:55:00
7:15 AM,32.0,10.4,41,30.06,10.0,WNW,17.3,28.8,N/A,,Clear,290,2013-02-01 12:15:00
7:35 AM,30.9,8.1,38,30.08,10.0,NW,13.8,23.0,N/A,,Clear,310,2013-02-01 12:35:00
7:55 AM,30.2,7.5,39,30.11,10.0,WNW,13.8,26.5,N/A,,Clear,290,2013-02-01 12:55:00
8:15 AM,30.6,7.9,39,30.13,10.0,NW,10.4,17.3,N/A,,Clear,310,2013-02-01 13:15:00
8:35 AM,30.2,6.3,36,30.15,10.0,WNW,9.2,19.6,N/A,,Clear,300,2013-02-01 13:35:00
8:55 AM,30.2,5.9,36,30.16,10.0,WNW,9.2,19.6,N/A,,Clear,300,2013-02-01 13:55:00
9:15 AM,30.2,5.7,36,30.17,10.0,NW,9.2,16.1,N/A,,Clear,310,2013-02-01 14:15:00
9:35 AM,30.2,4.8,34,30.19,10.0,NW,11.5,18.4,N/A,,Clear,320,2013-02-01 14:35:00
9:55 AM,29.7,3.4,33,30.19,10.0,NNW,10.4,24.2,N/A,,Clear,330,2013-02-01 14:55:00
10:15 AM,29.8,3.0,32,30.21,10.0,NW,12.7,23.0,N/A,,Clear,310,2013-02-01 15:15:00
10:35 AM,30.7,3.4,31,30.22,10.0,NNW,8.1,17.3,N/A,,Clear,330,2013-02-01 15:35:00
10:55 AM,31.5,3.0,30,30.24,10.0,WNW,9.2,16.1,N/A,,Clear,290,2013-02-01 15:55:00
11:15 AM,32.0,4.3,31,30.25,10.0,NW,9.2,16.1,N/A,,Clear,310,2013-02-01 16:15:00
11:35 AM,32.0,3.7,30,30.25,10.0,NW,5.8,-,N/A,,Clear,310,2013-02-01 16:35:00
11:55 AM,32.2,2.3,28,30.26,10.0,NNW,10.4,19.6,N/A,,Clear,330,2013-02-01 16:55:00
12:15 PM,32.0,1.9,28,30.25,10.0,WNW,9.2,16.1,N/A,,Clear,300,2013-02-01 17:15:00
12:55 PM,32.7,3.4,29,30.23,10.0,NW,6.9,17.3,N/A,,Clear,320,2013-02-01 17:55:00
1:15 PM,33.4,4.3,29,30.23,10.0,WNW,6.9,19.6,N/A,,Clear,290,2013-02-01 18:15:00
1:35 PM,34.2,5.7,30,30.23,10.0,WSW,9.2,17.3,N/A,,Clear,250,2013-02-01 18:35:00
1:55 PM,34.2,5.7,30,30.24,10.0,WSW,8.1,20.7,N/A,,Clear,250,2013-02-01 18:55:00
2:15 PM,33.8,3.4,28,30.24,10.0,WNW,12.7,18.4,N/A,,Clear,290,2013-02-01 19:15:00
2:35 PM,34.3,3.9,28,30.25,10.0,West,12.7,17.3,N/A,,Clear,270,2013-02-01 19:35:00
2:55 PM,34.9,4.6,28,30.25,10.0,WNW,12.7,16.1,N/A,,Clear,290,2013-02-01 19:55:00
3:15 PM,34.2,5.0,29,30.25,10.0,West,11.5,18.4,N/A,,Clear,260,2013-02-01 20:15:00
3:35 PM,34.2,5.4,30,30.26,10.0,WSW,10.4,19.6,N/A,,Clear,250,2013-02-01 20:35:00
3:55 PM,33.8,3.6,28,30.26,10.0,WNW,10.4,20.7,N/A,,Clear,290,2013-02-01 20:55:00
4:15 PM,33.6,3.6,28,30.26,10.0,West,9.2,-,N/A,,Clear,270,2013-02-01 21:15:00
4:35 PM,32.9,4.5,30,30.27,10.0,West,6.9,-,N/A,,Clear,260,2013-02-01 21:35:00
4:55 PM,32.4,4.3,31,30.28,10.0,West,8.1,-,N/A,,Clear,260,2013-02-01 21:55:00
5:15 PM,31.8,3.4,30,30.28,10.0,West,8.1,-,N/A,,Clear,270,2013-02-01 22:15:00
5:35 PM,30.9,2.7,30,30.29,10.0,West,5.8,-,N/A,,Clear,270,2013-02-01 22:35:00
5:55 PM,29.5,3.6,33,30.30,10.0,West,5.8,-,N/A,,Clear,260,2013-02-01 22:55:00
6:15 PM,29.1,3.2,33,30.30,10.0,West,5.8,-,N/A,,Clear,280,2013-02-01 23:15:00
6:35 PM,28.9,3.2,33,30.31,10.0,West,4.6,-,N/A,,Clear,280,2013-02-01 23:35:00
6:55 PM,28.0,4.1,36,30.32,10.0,Calm,Calm,-,N/A,,Clear,0,2013-02-01 23:55:00
7:15 PM,27.3,4.8,38,30.32,10.0,West,5.8,-,N/A,,Clear,280,2013-02-02 00:15:00
7:35 PM,27.7,4.1,37,30.33,10.0,WNW,3.5,-,N/A,,Clear,290,2013-02-02 00:35:00
7:55 PM,27.1,3.9,37,30.33,10.0,WNW,4.6,-,N/A,,Clear,300,2013-02-02 00:55:00
8:15 PM,26.6,4.3,39,30.34,10.0,NW,3.5,-,N/A,,Clear,310,2013-02-02 01:15:00
8:35 PM,26.6,3.9,38,30.35,10.0,NW,3.5,-,N/A,,Clear,320,2013-02-02 01:35:00
8:55 PM,27.3,3.4,36,30.36,10.0,Calm,Calm,-,N/A,,Clear,0,2013-02-02 01:55:00
9:15 PM,26.6,3.9,38,30.37,10.0,NW,4.6,-,N/A,,Clear,310,2013-02-02 02:15:00
9:35 PM,25.7,4.5,40,30.37,10.0,Calm,Calm,-,N/A,,Clear,0,2013-02-02 02:35:00
9:55 PM,24.6,5.9,45,30.37,10.0,Calm,Calm,-,N/A,,Clear,0,2013-02-02 02:55:00
10:15 PM,22.1,8.2,55,30.38,10.0,Calm,Calm,-,N/A,,Clear,0,2013-02-02 03:15:00
10:35 PM,24.4,5.2,44,30.38,10.0,Calm,Calm,-,N/A,,Clear,0,2013-02-02 03:35:00
10:55 PM,23.5,5.5,46,30.37,10.0,Calm,Calm,-,N/A,,Clear,0,2013-02-02 03:55:00
11:15 PM,21.6,5.9,51,30.37,10.0,Calm,Calm,-,N/A,,Clear,0,2013-02-02 04:15:00
11:35 PM,20.3,8.2,60,30.37,10.0,Calm,Calm,-,N/A,,Clear,0,2013-02-02 04:35:00
11:55 PM,19.8,10.4,67,30.37,10.0,Calm,Calm,-,N/A,,Clear,0,2013-02-02 04:55:00